Regional Weather Roundup
Issued by NWS

Home | Current Version | Previous Version | Graphics & Text | Print | Product List | Glossary On
Versions: 1 2 3 4 5 6 7 8 9 10 11 12 13 14 15 16 17 18 19 20 21 22 23 24 25 26 27
000
ASUS45 KTFX 171510
RWRMT
MONTANA REGIONAL WEATHER ROUNDUP
NATIONAL WEATHER SERVICE GREAT FALLS MT
800 AM MST TUE JAN 17 2017

NOTE: "FAIR" INDICATES FEW OR NO CLOUDS BELOW 12000 FEET WITH NO
SIGNIFICANT WEATHER AND/OR OBSTRUCTIONS TO VISIBILITY.

MTZ001>007-043-171600-
WEST OF THE DIVIDE

CITY           SKY/WX    TMP DP  RH WIND       PRES   REMARKS
KALISPELL      FOG       13  10  88 CALM      30.06S VSB 1/4
MISSOULA       PTCLDY    -4  -7  87 CALM      30.16R FOG
BUTTE          CLOUDY     0  -4  83 CALM      30.04S
MULLAN PASS    CLOUDY    25  17  72 S7        29.93R WCI  17
ANACONDA         N/A     19   7  58 S10       30.02F WCI   8
DEER LODGE       N/A      1  -4  78 CALM      30.08R
EUREKA           N/A     23  16  74 S9        29.99S WCI  13
HAMILTON         N/A      0  -6  78 CALM      30.11F
PLAINS           N/A      3  -5  69 CALM      30.11F
RONAN            N/A      4  -2  76 MISG      30.07R
$$

MTZ008-052>055-171600-
SOUTHWEST MONTANA

CITY           SKY/WX    TMP DP  RH WIND       PRES   REMARKS
BOZEMAN        CLOUDY     7   2  80 S3        30.08R
DILLON         CLOUDY    20   1  43 SE5       30.08R
W YELLOWSTONE  HAZE     -13 -20  70 CALM      30.20R VSB 1/4
ENNIS          CLEAR     21  12  68 S17       30.10S WCI   7
TWIN BRIDGES     N/A     15   0  51 SE7       30.06S WCI   5
$$

MTZ009-010-012-014-046-048-049-054-171600-
EAST SLOPES AND CENTRAL MONTANA

CITY           SKY/WX    TMP DP  RH WIND       PRES   REMARKS
CUT BANK       MOCLDY    39  24  55 W35G43    29.75F WCI  26
GREAT FALLS    CLOUDY    32  15  49 S26       29.83F WCI  18
MALMSTROM AFB  CLOUDY    36  22  55 SW24G30   29.83S WCI  24
HELENA         CLOUDY     4  -1  80 CALM      30.08S
AUGUSTA        MOCLDY    31  16  54 S14       29.85S WCI  20
BOWMANS CRNR     N/A     24  12  60 S22       29.88R WCI   9
CHOTEAU          N/A     36  19  51 SW14      29.84S WCI  27
CONRAD           N/A     34  26  72 S10       29.84R WCI  26
FAIRFIELD        N/A     30  15  53 S23       29.84R WCI  17
POWER            N/A     31  18  57 SW21      29.82R WCI  19
RAYNESFORD       N/A     49  13  24 SW38G46   29.81F
ULM              N/A     29  17  59 MISG      29.87F
$$

MTZ011-013-016-021-045-047-050-051-171600-
NORTH CENTRAL MONTANA

CITY           SKY/WX    TMP DP  RH WIND       PRES   REMARKS
HAVRE          CLOUDY    36  24  62 SW30G38   29.74S WCI  23
LEWISTOWN      CLOUDY    35  22  58 SW14      29.81F WCI  26
N BAR RANCH      N/A     39  23  52 SW12      29.82R WCI  32
CHINOOK          N/A     43  21  42 SW16      29.71S
DENTON         MOCLDY    44  24  44 S23G36    29.75S
FORT BENTON      N/A     37  18  44 MISG      29.81R
GEYSER           N/A     40  22  49 NW16      29.80R
GRASS RANGE      N/A     40  22  47 SW8       29.75F
JUDITH GAP       N/A     29  17  59 S13       29.83S WCI  19
ROY              N/A     44  26  50 MISG      29.75F
STANFORD         N/A     43  25  49 W23       29.78F
WINIFRED         N/A     41  24  51 SW20      29.77S
$$

MTZ017>020-022>027-061-062-171600-
NORTHEAST MONTANA

CITY           SKY/WX    TMP DP  RH WIND       PRES   REMARKS
GLASGOW        CLOUDY    13   8  81 E9        29.74S WCI   1
JORDAN           N/A     27  18  69 W8        29.77S WCI  19
SIDNEY         CLOUDY    13   7  77 S14       29.81S WCI  -2
WOLF POINT     CLOUDY     2  -3  80 CALM      29.78S
PLENTYWOOD       N/A     14   9  79 SE9       29.72S WCI   2
POPLAR           N/A     14   9  79 W5        29.78S
SCOBEY           N/A     19   5  54 SE3       29.70F
$$

MTZ028>42-056>058-171600-
SOUTHCENTRAL AND SOUTHEAST MONTANA

CITY           SKY/WX    TMP DP  RH WIND       PRES   REMARKS
BAKER            N/A    N/A N/A N/A MISG      29.84
BILLINGS       CLOUDY    27  12  53 SW29      29.88S WCI  11
MILES CITY     CLOUDY    11   3  70 S12       29.86S WCI  -3
BIG TIMBER     CLEAR     36  16  44 SW30G36   29.91S WCI  22
EKALAKA          N/A     35   8  32 S9        29.84F WCI  28
FORSYTH          N/A     10   5  79 CALM      29.85S
HARLOWTON        N/A     36  16  44 W12G25    29.88R WCI  28
LAUREL           N/A     28  12  51 S16       29.89F WCI  16
$$

REGIONAL REPORTS...DAKOTAS

CITY           SKY/WX    TMP DP  RH WIND       PRES   REMARKS
WILLISTON      CLOUDY    12   6  77 SE5       29.80S
MINOT          CLOUDY    17   9  70 S8        29.79F WCI   7
DICKINSON      CLOUDY    18   9  68 S14       29.81S WCI   4
BEACH            N/A     23  10  58 SW20G25   29.84S WCI   8
CROSBY           N/A     14   9  79 S25       29.73F WCI  -5
TIOGA            N/A     16  10  79 SW10      29.78S WCI   3
WATFORD CITY     N/A     12   7  79 W7        29.80F WCI   2
BISMARCK       CLOUDY     3   0  87 CALM      29.93F
GRAND FORKS    CLOUDY     4   0  83 S8        29.92F WCI  -9
FARGO          PTCLDY     6   3  87 S8        29.97S WCI  -7
BUFFALO SD       N/A     22   9  57 SW7       29.81F WCI  13
RAPID CITY     CLOUDY     9   4  80 CALM      29.94S
$$

REGIONAL REPORTS...WYOMING/IDAHO/WASHINGTON

CITY           SKY/WX    TMP DP  RH WIND       PRES   REMARKS
GILLETTE       CLOUDY    26   9  48 SW6       29.93S WCI  19
SHERIDAN       CLOUDY    11   1  64 S6        29.91F WCI   1
BUFFALO WY     CLOUDY    37   1  22 SW8       29.92S WCI  31
CODY           CLOUDY    15   6  67 CALM      29.97
YELLOWSTONE LA   N/A    -12 -16  82 CALM      30.17R
IDAHO FALLS    CLOUDY    -5  -8  87 N7        30.29R WCI -19
SALMON         CLOUDY   -17 -18  91 CALM      30.38S
BOISE          CLEAR      1  -3  83 S5        30.36S FOG
SPOKANE        LGTSLEET  17  14  88 CALM      30.04R
$$

REGIONAL REPORTS...ALBERTA

CITY           SKY/WX    TMP DP  RH WIND       PRES   REMARKS
EDMONTON       MOCLDY    37  23  56 SW8       29.36S WCI  31
CALGARY        MOCLDY    48  28  46 SW13G20   29.51S
LETHBRIDGE     MOCLDY    39  30  70 SW23      29.67F WCI  29
MEDICINE HAT   MOCLDY    41  30  65 SW30G38   29.54S
WATERTON GATE    N/A     41  25  52 SW18G32     N/A
CARDSTON         N/A     41  28  60 SE6         N/A
MILK RIVER       N/A     41  28  60 SW20G25     N/A
ONEFOUR          N/A     41  28  60 SW9         N/A
$$

REGIONAL REPORTS...SASKATCHEWAN

CITY           SKY/WX    TMP DP  RH WIND       PRES   REMARKS
SWIFT CURRENT  CLEAR     39  30  70 W23G29    29.54R WCI  29
REGINA         MOCLDY    18  12  79 SE9       29.57F WCI   6
SASKATOON      MOCLDY    30  25  80 SW12      29.43S WCI  21
CYPRESS HILLS    N/A     45  28  53 W24G35      N/A
VAL MARIE        N/A     21  14  73 S12         N/A  WCI   9
ROCKGLEN         N/A     34  19  55 SW31G39     N/A  WCI  20
$$




USA.gov is the U.S. government's official web portal to all federal, state and local government web resources and services.